Weather History for Cross City, FL

Change the Weather History Date:

Friday, May 31, 2013

  Actual Average Record
Temperature  
Mean Temperature 80 °F 78 °F  
Max Temperature 91 °F 90 °F 95 °F (2001)
Min Temperature 69 °F 66 °F 57 °F (2000)
Degree Days  
Heating Degree Days 0 0  
Month to date heating degree days 9 0  
Since 1 July heating degree days 1133 1306  
Cooling Degree Days 15 13  
Month to date cooling degree days 250 297  
Year to date cooling degree days 535 479  
Growing Degree Days 30 (Base 50)    
Moisture  
Dew Point 68 °F    
Average Humidity 70    
Maximum Humidity 97    
Minimum Humidity 47    
Precipitation  
Precipitation 0.02 in 0.17 in 1.20 in (2005)
Month to date precipitation 5.00 2.69  
Year to date precipitation 12.54 17.17  
Sea Level Pressure  
Sea Level Pressure 30.08 in    
Wind  
Wind Speed 6 mph (East)    
Max Wind Speed 14 mph    
Max Gust Speed 24 mph    
T = Trace of Precipitation, MM = Missing Value Source: NWS Daily Summary

Daily Weather History Graph

Daily Weather History Graph

Search for Another Location

Airport:

Trip Planner

Search our weather history database for the weather conditions in past years. The results will help you decide how hot, cold, wet, or windy it might be!

Date:

Astronomy

May. 31, 2013 Rise Set
Actual Time 6:32 AM EDT 8:27 PM EDT
Civil Twilight 6:05 AM EDT 8:54 PM EDT
Nautical Twilight 5:33 AM EDT 9:27 PM EDT
Astronomical Twilight 4:58 AM EDT 10:01 PM EDT
Moon 1:22 AM EDT (5/31) 1:23 PM EDT (5/31)
Length of Visible Light 14h 48m
Length of Day
13h 54m
Waning Gibbous, 51% of the Moon is Illuminated
May 31
Waning Gibbous
May 31
Last Quarter
Jun 8
New
Jun 16
First Quarter
Jun 23
Full

Hourly Weather History & Observations

Time (EDT) Temp. Heat Index Dew Point Humidity Pressure Visibility Wind Dir Wind Speed Gust Speed Precip Events Conditions
12:53 AM 73.9 °F - 68.0 °F 82% 30.12 in - Variable 3.5 mph - N/A   Unknown
1:53 AM 73.0 °F - 69.1 °F 87% 30.12 in - East 3.5 mph - N/A   Unknown
2:53 AM 72.0 °F - 69.1 °F 91% 30.09 in - Calm Calm - N/A   Unknown
3:53 AM 72.0 °F - 69.1 °F 91% 30.08 in - East 4.6 mph - N/A   Unknown
4:53 AM 71.1 °F - 68.0 °F 90% 30.08 in - ENE 3.5 mph - N/A   Unknown
5:53 AM 70.0 °F - 68.0 °F 93% 30.08 in - Calm Calm - N/A   Unknown
6:53 AM 69.1 °F - 68.0 °F 96% 30.09 in - East 3.5 mph - 0.01 in   Unknown
7:53 AM 73.0 °F - 69.1 °F 87% 30.10 in - East 3.5 mph - N/A   Unknown
8:53 AM 77.0 °F - 70.0 °F 79% 30.12 in - ESE 8.1 mph - N/A   Unknown
9:53 AM 79.0 °F - 69.1 °F 72% 30.12 in - ESE 9.2 mph 20.7 mph N/A   Unknown
10:53 AM 82.0 °F 84.9 °F 68.0 °F 62% 30.12 in - SE 8.1 mph - N/A   Unknown
11:53 AM 84.9 °F 88.2 °F 68.0 °F 57% 30.12 in - ESE 5.8 mph - N/A   Unknown
12:53 PM 87.1 °F 90.6 °F 68.0 °F 53% 30.11 in - ESE 5.8 mph - 0.01 in   Unknown
1:53 PM 87.1 °F 90.6 °F 68.0 °F 53% 30.09 in - East 5.8 mph - N/A   Unknown
2:53 PM 90.0 °F 92.8 °F 66.9 °F 46% 30.06 in - East 8.1 mph 18.4 mph N/A   Unknown
3:53 PM 90.0 °F 93.6 °F 68.0 °F 48% 30.04 in - ENE 10.4 mph 18.4 mph N/A   Unknown
4:53 PM 89.1 °F 94.1 °F 70.0 °F 53% 30.04 in - SE 10.4 mph 17.3 mph N/A   Unknown
5:53 PM 87.1 °F 89.9 °F 66.9 °F 51% 30.03 in - ESE 10.4 mph 20.7 mph N/A   Unknown
6:53 PM 84.9 °F 88.2 °F 68.0 °F 57% 30.04 in - East 10.4 mph 17.3 mph N/A   Unknown
7:53 PM 82.9 °F 85.8 °F 68.0 °F 60% 30.04 in - Variable 6.9 mph - N/A   Unknown
8:53 PM 81.0 °F 84.1 °F 69.1 °F 67% 30.06 in - East 5.8 mph - N/A   Unknown
9:53 PM 80.1 °F 82.7 °F 68.0 °F 67% 30.08 in - ESE 8.1 mph - N/A   Unknown
10:53 PM 78.1 °F - 68.0 °F 71% 30.09 in - East 6.9 mph - N/A   Unknown
11:53 PM 75.9 °F - 68.0 °F 76% 30.09 in - Variable 3.5 mph - N/A   Unknown